Location: Caltech
(34.1382°N, 118.1253°W)
Time: 09:03:32
(UTC-08:00)

RS-15 - Visible Passes

Search period start: 11 December 2017 00:00
Search period end: 21 December 2017 00:00
Orbit: 1885 x 2159 km, 64.8° (Epoch: 10 December)

Date Brightness Start Highest point End Pass type
(mag) Time Alt. Az. Time Alt. Az. Time Alt. Az.
11 Dec 9.7 18:23:30 10° WNW 18:30:37 17° NNW 18:37:40 10° NNE visible
11 Dec 9.8 20:45:19 10° NNW 20:48:29 13° N 20:48:29 13° N visible
12 Dec 9.7 17:45:01 10° WNW 17:53:23 20° NNW 18:01:42 10° NNE visible
12 Dec 9.7 20:08:47 10° NNW 20:13:13 12° N 20:13:40 12° N visible
13 Dec 9.6 17:06:51 10° W 17:16:21 25° NW 17:25:48 10° NNE visible
13 Dec 9.7 19:31:32 10° NNW 19:35:36 12° N 19:38:52 11° NNE visible
13 Dec 9.9 21:45:33 10° NNW 21:46:36 12° N 21:46:36 12° N visible
14 Dec 9.7 18:53:25 10° NNW 18:57:58 12° N 19:02:26 10° NNE visible
14 Dec 9.8 21:09:38 10° NNW 21:11:49 14° N 21:11:49 14° N visible
15 Dec 9.7 18:14:47 10° NW 18:20:24 14° NNW 18:25:57 10° NNE visible
15 Dec 9.7 20:33:39 10° NNW 20:37:02 15° N 20:37:02 15° N visible
16 Dec 9.7 17:36:03 10° WNW 17:42:58 16° NNW 17:49:48 10° NNE visible
16 Dec 9.6 19:57:31 10° NNW 20:02:15 14° NNE 20:02:15 14° NNE visible
16 Dec 10.0 22:09:27 10° NNW 22:10:00 12° NNW 22:10:00 12° NNW visible
17 Dec 9.6 16:57:31 10° WNW 17:05:42 20° NNW 17:13:50 10° NNE visible
17 Dec 9.6 19:21:03 10° NNW 19:25:36 12° N 19:27:28 12° NNE visible
17 Dec 9.8 21:33:34 10° NNW 21:35:13 14° NNW 21:35:13 14° NNW visible
18 Dec 9.6 18:43:57 10° NNW 18:47:59 12° N 18:51:58 10° NNE visible
18 Dec 9.6 20:57:40 10° NNW 21:00:28 16° N 21:00:28 16° N visible
19 Dec 9.7 18:05:57 10° NNW 18:10:20 12° N 18:14:41 10° NNE visible
19 Dec 9.5 20:21:46 10° NNW 20:25:43 17° N 20:25:43 17° N visible
20 Dec 9.6 17:27:20 10° NW 17:32:46 14° NNW 17:38:07 10° NNE visible
20 Dec 9.5 19:45:48 10° NNW 19:50:59 16° NNE 19:50:59 16° NNE visible
20 Dec 9.9 21:57:31 10° NNW 21:58:44 14° NNW 21:58:44 14° NNW visible
